レモン彗星

C/2022 V2 ( Lemmon )

English version
Home page
Updated on August 27, 2023

---------------------------------------------------------------------

・ プロフィール

発見日 2022年11月2日
発見光度 20.6等
発見者 Mt. Lemmon Survey

・ 写真集

・ 軌道要素

Epoch 2023 Feb. 25.0 TT = JDT 2460000.5                                         
T 2023 Nov. 1.94247 TT                                  Rudenko                 
q   2.0635122            (2000.0)            P               Q                  
z  +0.0271991      Peri.  168.95435     -0.88699351     -0.10120100             
 +/-0.0000006      Node   332.86709     +0.31115846     +0.58994976             
e   0.9438743      Incl.   98.90727     +0.34120805     -0.80107281             
>From 297 observations 2022 July 20-2023 May 23, mean residual 0".5.             

・ 星図

・ 光度変化

        m1 = 11.5 + 5 logΔ + 10.0 log r

---------------------------------------------------------------------

軌道要素はM.P.E.C. 2023-K121に掲載されたものです。
星図はステラナビゲータ Ver.11 (アストロアーツ) で作成したものです。
光度グラフはComet for Windowsで作成したものです。

---------------------------------------------------------------------

Copyright(C) Seiichi Yoshida (comet@aerith.net). All rights reserved.